Regional Weather Roundup
Issued by NWS

Home | Current Version | Previous Version | Graphics & Text | Print | Product List | Glossary On
Versions: 1 2 3 4 5 6 7 8 9 10 11 12 13 14 15 16 17 18 19 20 21 22 23 24 25 26 27 28 29 30 31 32 33 34 35 36 37 38 39 40 41 42 43 44 45 46 47 48 49 50
000
ASUS45 KTFX 201904
RWRMT
MONTANA HOURLY WEATHER ROUNDUP
NATIONAL WEATHER SERVICE GREAT FALLS MT
104 PM MDT MON OCT 20 2014

NOTE: "FAIR" INDICATES FEW OR NO CLOUDS BELOW 12000 FEET WITH NO
SIGNIFICANT WEATHER AND/OR OBSTRUCTIONS TO VISIBILITY.

* THESE STATIONS ARE NOT UNDER NWS QUALITY CONTROL. THEY DO NOT
   REPORT WEATHER SUCH AS PRECIPITATION OR FOG.

MTZ001>007-043-202000-
WEST OF THE DIVIDE
CITY           SKY/WX    TMP DP  RH WIND       PRES   REMARKS
KALISPELL      SUNNY     59  41  51 CALM      29.82F
MISSOULA       SUNNY     57  39  51 VRB5      29.86F
BUTTE          SUNNY     64  28  26 NW5       29.97F
MULLAN PASS    SUNNY     57  34  42 S9        29.90F
* ESSEX        N/A       53  38  57 NW2        N/A
* LINCOLN      N/A       54  35  49 NE1        N/A
* POLSON       N/A       58  45  62 N2         N/A
* RONAN APT    SUNNY     61  46  58 N/A        N/A
* SEELEY LAKE  N/A       58  36  44 W2         N/A
* THOMP F APT  SUNNY     62  28  28 S7G13      N/A
$$

MTZ008-052>055-202000-
SOUTHWEST MONTANA
CITY           SKY/WX    TMP DP  RH WIND       PRES   REMARKS
BOZEMAN        SUNNY     64  36  35 CALM      29.95F
DILLON         SUNNY     66  27  23 CALM      29.96F
W YELLOWSTONE  SUNNY     55  27  34 CALM      30.12F
* THREE FORKS  SUNNY     61  48  62 N/A        N/A
* BOULDER HILL N/A       60  28  30 S12G17     N/A
* MONIDA PASS  N/A       59  27  29 SE17G24    N/A
* RAYNOLDS PAS N/A       60  44  56 S19G24     N/A
* WHITEHALL    N/A       63  30  29 N4         N/A
* WISE RIVER   N/A       51  30  45 W4         N/A
$$

MTZ009>010-012-014-046-048-049-054-202000-
EAST SLOPES AND CENTRAL MONTANA
CITY           SKY/WX    TMP DP  RH WIND       PRES   REMARKS
CUT BANK       SUNNY     75  30  19 SW10      29.78F
GREAT FALLS    SUNNY     75  32  21 S12       29.82F
HELENA         SUNNY     61  34  36 CALM      29.90F
MALMSTROM AFB  SUNNY     75  32  21 S22G28    29.83F
* CONRAD       SUNNY     73  37  27 S16G22     N/A
* DEARBORN     N/A       71  29  21 S12G18     N/A
* EAST GLACIER N/A       67  27  22 W28G35     N/A
* MONARCH      N/A       68  28  22 SW14       N/A
* PENDROY      N/A       71  36  28 S17G23     N/A
* ROGERS PASS  N/A       64  27  25 E11G19     N/A
* SAINT MARY   N/A       68  30  24 S9G20      N/A
* SWEET GRASS  N/A       69  31  24 S12        N/A
$$

MTZ011-013-016-021-035-040-045-047-050-051-202000-
NORTH CENTRAL MONTANA
CITY           SKY/WX    TMP DP  RH WIND       PRES   REMARKS
HAVRE          SUNNY     70  37  30 CALM      29.78F
LEWISTOWN      SUNNY     77  34  21 SW9       29.89F
* CHINOOK      SUNNY     63  43  48 E6        29.79F
* FORT BENTON  SUNNY     72  37  28 NE3       29.80F
* CHESTER      N/A       67  35  31 S3G8       N/A
* DENTON       N/A       79  42  27 S6         N/A
* GEYSER       N/A       74  34  23 SW14G20    N/A
* JUDITH GAP   N/A       72  32  23 SW12       N/A
* LOMA         N/A       69  37  31 E2G7       N/A
$$

MTZ017>020-022>027-061-062-202000-
NORTHEAST MONTANA
CITY           SKY/WX    TMP DP  RH WIND       PRES   REMARKS
GLASGOW        SUNNY     64  43  47 SE9       29.83F
GLENDIVE       SUNNY     68  43  40 S10       29.91F
JORDAN         SUNNY     75  32  21 S12       29.83F
SIDNEY         SUNNY     73  43  34 S14       29.89F
WOLF POINT     SUNNY     70  45  41 E7        29.85F
* BEAVER HILL  N/A       70  39  32 S20G27     N/A
* CIRCLE       N/A       73  44  35 S7G12      N/A
* LINDSAY DVD  N/A       66  41  40 SE6G14     N/A
* NAVAJO       N/A       68  41  38 S12        N/A
$$

MTZ028>042-056>058-202000-
SOUTHCENTRAL AND SOUTHEAST MONTANA
CITY           SKY/WX    TMP DP  RH WIND       PRES   REMARKS
BAKER          SUNNY     72  43  35 S15       29.93F
BILLINGS       SUNNY     72  32  23 S12       29.92F
LIVINGSTON     SUNNY     75  28  18 S20G26    29.93F
MILES CITY     SUNNY     70  41  35 S5        29.89F
* LAUREL APT   SUNNY     73  32  22 S7         N/A
* ROUNDUP APT  SUNNY     70  30  23 S9         N/A
* ALZADA       N/A       71  45  39 E7         N/A
* HYSHAM       N/A       70  34  27 W6         N/A
* LAME DEER    N/A       71  32  24 E6         N/A
* REED POINT   N/A       70  33  26 SW1        N/A
* ROSCOE HILL  N/A       72  26  18 E5         N/A
$$

REGIONAL REPORTS...DAKOTAS
CITY           SKY/WX    TMP DP  RH WIND       PRES   REMARKS
WILLISTON      SUNNY     73  39  29 SE13      29.89F
DICKINSON      SUNNY     72  41  33 S22       29.94F
BEACH          N/A       72  39  30 S18G23    29.92F
CROSBY         SUNNY     72  41  33 S17       29.89F
TIOGA          SUNNY     70  37  30 S18G25    29.94F
BISMARCK       SUNNY     72  34  25 S13G23    30.01F
GRAND FORKS    SUNNY     55  43  64 NE6       30.05F
FARGO          HAZE      61  45  56 N8        30.04F
RAPID CITY     SUNNY     72  43  35 SE17      29.98F
$$

REGIONAL REPORTS...WYOMING/IDAHO/WASHINGTON
CITY           SKY/WX    TMP DP  RH WIND       PRES   REMARKS
GILLETTE       SUNNY     75  30  19 SW16      29.96F
SHERIDAN       SUNNY     72  27  19 CALM      29.94F
CODY           SUNNY    N/A N/A N/A SW9       29.99F
YELLOWSTONE LA SUNNY     50  30  46 E5        30.20F
MULLAN PASS    SUNNY     57  34  42 S9        29.90S
SAND POINT     SUNNY     59  46  62 E6        29.80S
SPOKANE        PTSUNNY   64  43  47 SW8       29.77S

$$




USA.gov is the U.S. government's official web portal to all federal, state and local government web resources and services.